[[{"header":{"parameterUnit":"m.s-1","parameterCategory":1,"la1":30.2991,"la2":30.254,"lo1":-89.0895,"lo2":-89.0444,"dy":0.0017,"dx":0.0017,"nx":28,"ny":28,"refTime":"2024-05-09T03:00:00:Z","depth":0,"parameterNumber":2,"parameterNumberName":"U-component_of_WINDS"},"data":[0,0,0,0,0,0,0,0,0,0,0,0,0,0,0,0,0,0,0,0,0,0,0,0,0,0,0,0,0,0,0,0,0,0,0,0,0,0,0,0,0,0,0,0,0,0,0,0,0,0,0,0,0,0,0,0,0,0,-2.1652,-2.1651,0,-2.1638,-2.1638,-2.1638,-2.1617,-2.1617,-2.1616,-2.1616,-2.1602,-2.1602,-2.1602,0,0,0,0,0,0,0,0,0,0,0,0,0,-2.166,-2.166,-2.1652,-2.1651,-2.1651,-2.1638,-2.1638,-2.1637,-2.1617,-2.1617,-2.1616,-2.1616,-2.1602,-2.1602,-2.1602,0,0,0,0,0,0,0,0,0,0,0,0,0,-2.1652,-2.166,-2.1652,-2.1639,-2.1638,-2.1638,-2.1638,-2.1637,-2.1617,-2.1617,-2.1616,-2.1616,-2.1602,-2.1602,-2.1602,-2.1613,0,0,-2.1602,-2.1602,0,0,0,0,0,0,0,0,-2.1653,-2.1652,-2.1641,-2.164,-2.1639,-2.1629,-2.1636,-2.1629,-2.1617,-2.1625,-2.1616,-2.1615,-2.1612,-2.1611,-2.1609,-2.1612,-2.1612,-2.1602,-2.1602,-2.1602,-2.1602,0,0,0,0,0,0,0,-2.1653,-2.1653,-2.1646,-2.1641,-2.164,-2.1635,-2.1633,-2.1634,-2.1622,-2.1624,-2.1623,-2.1622,-2.1611,-2.1609,-2.1609,-2.1611,-2.1602,-2.1602,-2.1602,-2.1602,-2.1621,-2.1622,0,0,0,0,0,0,-2.1656,-2.1653,-2.1647,-2.1646,-2.1645,-2.1635,-2.1633,-2.1632,-2.1622,-2.1619,-2.1622,-2.1621,-2.161,-2.1609,-2.1608,-2.1619,-2.1602,-2.1602,-2.1602,-2.1621,-2.1621,-2.1622,0,0,0,0,0,0,-2.1656,-2.1655,-2.1647,-2.1649,-2.1648,-2.1635,-2.1635,-2.1632,-2.1631,-2.162,-2.1617,-2.1623,-2.1609,-2.1608,-2.1612,-2.1618,-2.1602,-2.1602,-2.162,-2.1621,-2.1621,-2.1641,0,0,0,0,0,0,-2.1656,-2.1656,-2.166,-2.1649,-2.1648,-2.1651,-2.1635,-2.1633,-2.1631,-2.1629,-2.162,-2.1618,-2.1609,-2.1612,-2.1611,-2.1618,-2.1602,-2.1619,-2.162,-2.1621,-2.164,-2.1642,-2.1645,0,0,0,0,0,-2.1657,-2.1666,-2.166,-2.1659,-2.1652,-2.1651,-2.165,-2.1639,-2.1632,-2.1635,-2.1628,-2.1618,-2.1618,-2.1612,-2.1612,-2.1618,-2.1619,-2.162,-2.1621,-2.1639,-2.1642,-2.1645,0,0,0,0,0,0,-2.1678,-2.1664,-2.1657,-2.1664,-2.1659,-2.1648,-2.1652,-2.1643,-2.1641,-2.1639,-2.1626,-2.1624,-2.1628,-2.1624,-2.1618,-2.1627,-2.1617,-2.1618,-2.163,-2.1633,-2.1636,-2.1636,-2.1602,0,0,0,0,0,-2.1683,-2.1683,-2.1672,-2.1678,-2.1676,-2.1665,-2.1664,-2.1656,-2.165,-2.1648,-2.1641,-2.1636,-2.1634,-2.1634,-2.1632,-2.1639,-2.1636,-2.1643,-2.1646,-2.1648,-2.1649,-2.1652,-2.1654,-2.1626,-2.1626,-2.1626,0,0,-2.1694,-2.1687,-2.1688,-2.1682,-2.1677,-2.1678,-2.1663,-2.1664,-2.1664,-2.1648,-2.165,-2.1645,-2.1638,-2.1644,-2.1645,-2.164,-2.1656,-2.165,-2.1651,-2.1651,-2.1653,-2.1656,-2.1658,-2.1626,-2.1626,-2.1626,0,0,-2.1714,-2.1709,-2.1713,-2.1709,-2.1701,-2.1693,-2.1695,-2.1685,-2.168,-2.1683,-2.167,-2.167,-2.1668,-2.1664,-2.1661,-2.1679,-2.1669,-2.1679,-2.1691,-2.1694,-2.1696,-2.1698,-2.1704,-2.1706,-2.168,-2.168,-2.168,0,-2.1728,-2.1728,-2.1717,-2.1718,-2.1716,-2.1701,-2.1705,-2.1701,-2.1694,-2.1693,-2.1686,-2.1683,-2.1678,-2.1681,-2.1685,-2.1684,-2.1684,-2.1679,-2.1697,-2.1699,-2.17,-2.1705,-2.1708,-2.1681,-2.1681,-2.1681,-2.1681,0,-2.1746,-2.1746,-2.1751,-2.1743,-2.1742,-2.1745,-2.1733,-2.1733,-2.1725,-2.1718,-2.1719,-2.1712,-2.1708,-2.1709,-2.1701,-2.1711,-2.1707,-2.1699,-2.1688,-2.1704,-2.1709,-2.1711,-2.1682,-2.1682,-2.1682,-2.1682,0,0,-2.1779,-2.1765,-2.1766,-2.1762,-2.1753,-2.1753,-2.1755,-2.1751,-2.175,-2.1746,-2.1747,-2.1745,-2.1737,-2.1734,-2.1726,-2.1729,-2.1742,-2.172,-2.172,-2.1724,-2.1751,-2.1756,-2.1759,-2.1736,-2.1736,-2.1736,-2.1751,0,-2.1796,-2.1799,-2.1788,-2.1793,-2.1793,-2.1778,-2.178,-2.1774,-2.1768,-2.1766,-2.1759,-2.1757,-2.1748,-2.1746,-2.1748,-2.174,-2.1747,-2.1739,-2.1736,-2.1736,-2.1737,-2.1761,-2.1767,-2.1782,-2.1753,-2.1753,-2.1753,0,-2.1817,-2.1813,-2.1818,-2.1807,-2.1807,-2.1808,-2.1803,-2.1802,-2.1795,-2.179,-2.1787,-2.1777,-2.1778,-2.1768,-2.1769,-2.1763,-2.1761,-2.1757,-2.1758,-2.1757,-2.1745,-2.176,-2.1786,-2.1788,-2.1756,-2.1756,-2.1756,0,-2.1839,-2.1835,-2.1837,-2.1834,-2.1823,-2.1824,-2.1819,-2.1812,-2.1809,-2.1805,-2.1803,-2.1799,-2.1797,-2.1794,-2.1783,-2.1777,-2.1785,-2.1774,-2.178,-2.1781,-2.1782,-2.1782,-2.1808,-2.1782,-2.1782,-2.1782,-2.1782,0,-2.1859,-2.1863,-2.1847,-2.1848,-2.1851,-2.1839,-2.1842,-2.1836,-2.1829,-2.1829,-2.1817,-2.1817,-2.1803,-2.1801,-2.1793,-2.1795,-2.1794,-2.179,-2.1787,-2.179,-2.1791,-2.1788,-2.1787,-2.1783,-2.1783,-2.1783,-2.1783,0,-2.1885,-2.1874,-2.1875,-2.1864,-2.1861,-2.1864,-2.1854,-2.1854,-2.1847,-2.1846,-2.1845,-2.1834,-2.1831,-2.182,-2.1815,-2.1809,-2.1813,-2.1809,-2.1815,-2.1814,-2.182,-2.1819,-2.1845,-2.1847,-2.1821,-2.1821,-2.1821,0,-2.1898,-2.19,-2.1889,-2.1887,-2.1883,-2.1881,-2.1879,-2.1866,-2.1864,-2.1856,-2.1858,-2.1854,-2.185,-2.1846,-2.1837,-2.1833,-2.1828,-2.1837,-2.1827,-2.183,-2.1827,-2.1827,-2.1827,-2.1839,-2.1839,-2.184,-2.184,0,-2.1923,-2.1917,-2.1914,-2.1909,-2.1906,-2.1902,-2.1896,-2.1896,-2.1882,-2.1881,-2.1877,-2.1874,-2.1869,-2.1865,-2.1859,-2.1854,-2.1844,-2.1843,-2.1844,-2.1847,-2.185,-2.1848,-2.182,-2.1843,-2.1842,-2.1842,-2.1842,-2.1842,-2.1942,-2.1943,-2.1934,-2.1931,-2.1926,-2.1921,-2.192,-2.1913,-2.191,-2.1904,-2.1897,-2.1894,-2.1887,-2.1878,-2.1873,-2.1871,-2.1866,-2.1868,-2.1868,-2.1868,-2.1869,-2.1851,-2.187,-2.187,-2.187,-2.187,-2.1869,0,-2.1965,-2.1959,-2.1956,-2.1949,-2.1946,-2.1937,-2.1931,-2.1929,-2.1927,-2.192,-2.1917,-2.1913,-2.1909,-2.1899,-2.1894,-2.1894,-2.1889,-2.1893,-2.1893,-2.1891,-2.1875,-2.1874,-2.1897,-2.1897,-2.1897,-2.1897,-2.1897,-2.1897,-2.1977,-2.1977,-2.1971,-2.1969,-2.1962,-2.196,-2.1956,-2.1952,-2.1946,-2.1942,-2.1939,-2.1932,-2.1924,-2.1919,-2.1914,-2.1912,-2.191,-2.1915,-2.1911,-2.1895,-2.1893,-2.189,-2.1889,-2.1915,-2.1915,-2.1927,-2.1928,-2.1928]},{"header":{"parameterUnit":"m.s-1","parameterCategory":1,"la1":30.2991,"la2":30.254,"lo1":-89.0895,"lo2":-89.0444,"dy":0.0017,"dx":0.0017,"nx":28,"ny":28,"refTime":"2024-05-09T03:00:00:Z","depth":0,"parameterNumber":3,"parameterNumberName":"V-component_of_WINDS"},"data":[0,0,0,0,0,0,0,0,0,0,0,0,0,0,0,0,0,0,0,0,0,0,0,0,0,0,0,0,0,0,0,0,0,0,0,0,0,0,0,0,0,0,0,0,0,0,0,0,0,0,0,0,0,0,0,0,0,0,6.1323,6.1326,0,6.1541,6.1543,6.1546,6.1575,6.1573,6.1571,6.1569,6.1783,6.1791,6.1798,0,0,0,0,0,0,0,0,0,0,0,0,0,6.0923,6.0931,6.1323,6.1326,6.1329,6.1541,6.1544,6.1546,6.1575,6.1573,6.157,6.1568,6.1781,6.179,6.1799,0,0,0,0,0,0,0,0,0,0,0,0,0,6.1114,6.0933,6.1323,6.1369,6.1375,6.154,6.1544,6.1547,6.1576,6.1573,6.157,6.1567,6.1778,6.1789,6.18,6.1932,0,0,6.1835,6.184,0,0,0,0,0,0,0,0,6.1104,6.1129,6.1359,6.1366,6.1373,6.1528,6.1481,6.1676,6.1577,6.1499,6.1569,6.1565,6.17,6.1718,6.1765,6.1942,6.1951,6.1836,6.1843,6.1848,6.1851,0,0,0,0,0,0,0,6.109,6.112,6.1409,6.1362,6.1371,6.1376,6.1399,6.1518,6.1614,6.1506,6.1508,6.1534,6.1703,6.1754,6.177,6.1954,6.1836,6.1846,6.1853,6.1857,6.2249,6.2252,0,0,0,0,0,0,6.107,6.1109,6.1402,6.1416,6.1228,6.1385,6.1412,6.1481,6.1613,6.163,6.1537,6.1535,6.1736,6.1757,6.1778,6.1941,6.1848,6.1859,6.1865,6.2245,6.2249,6.2253,0,0,0,0,0,0,6.1061,6.1096,6.1393,6.1263,6.1301,6.1395,6.1473,6.1487,6.1538,6.1636,6.1653,6.1572,6.1735,6.1762,6.1894,6.1948,6.1864,6.1874,6.2241,6.2246,6.2251,6.2267,0,0,0,0,0,0,6.105,6.1093,6.1146,6.1264,6.1308,6.1508,6.1476,6.1493,6.1558,6.1558,6.1673,6.1689,6.1734,6.1877,6.1905,6.1963,6.1883,6.2236,6.2243,6.225,6.2262,6.2272,6.2281,0,0,0,0,0,6.1035,6.114,6.1148,6.1183,6.1377,6.1511,6.1536,6.1588,6.1563,6.1616,6.1679,6.1686,6.1938,6.189,6.1922,6.1984,6.2233,6.2241,6.2249,6.2258,6.227,6.228,0,0,0,0,0,0,6.1022,6.1156,6.1167,6.1314,6.1401,6.1516,6.1584,6.16,6.1694,6.169,6.1747,6.1773,6.1902,6.1956,6.19,6.2118,6.2083,6.2098,6.2078,6.2091,6.21,6.2084,6.1893,0,0,0,0,0,6.1037,6.1138,6.1248,6.1366,6.141,6.149,6.155,6.1583,6.1675,6.1711,6.1784,6.187,6.1969,6.2033,6.2129,6.2269,6.2294,6.2328,6.2337,6.2344,6.2356,6.2433,6.2449,6.2279,6.2279,6.2279,0,0,6.1067,6.1153,6.1213,6.1366,6.1438,6.1538,6.1521,6.1628,6.1702,6.1726,6.1856,6.1912,6.2012,6.2149,6.2213,6.2198,6.2409,6.2354,6.2359,6.2368,6.2443,6.2459,6.2473,6.2285,6.2284,6.2283,0,0,6.1175,6.125,6.1357,6.143,6.154,6.1592,6.1617,6.173,6.1769,6.1901,6.1921,6.2009,6.2178,6.2249,6.2306,6.2439,6.2449,6.2469,6.2518,6.2592,6.2606,6.2618,6.2665,6.2681,6.248,6.248,6.248,0,6.1198,6.1353,6.1409,6.1517,6.1582,6.1612,6.1719,6.1785,6.192,6.1963,6.1945,6.2158,6.2228,6.2381,6.2413,6.2459,6.2489,6.2456,6.26,6.2613,6.2625,6.267,6.2687,6.2482,6.2482,6.2482,6.2481,0,6.1376,6.1483,6.1555,6.1688,6.1762,6.1868,6.1938,6.2005,6.2031,6.2084,6.2216,6.2301,6.2414,6.2453,6.2478,6.2609,6.2597,6.2589,6.2555,6.2642,6.2685,6.2703,6.2484,6.2484,6.2483,6.2483,0,0,6.1482,6.1644,6.167,6.173,6.1853,6.1935,6.2041,6.2155,6.2212,6.2302,6.2392,6.2534,6.2528,6.2593,6.2626,6.2692,6.2791,6.2675,6.2678,6.2693,6.2939,6.2945,6.2964,6.2798,6.2801,6.2804,6.2931,0,6.1603,6.1798,6.1851,6.2014,6.2112,6.2141,6.2233,6.2317,6.2369,6.2458,6.2514,6.2614,6.2598,6.2637,6.2704,6.2765,6.2841,6.2756,6.2879,6.2883,6.2854,6.2987,6.2994,6.3109,6.2948,6.2951,6.2953,0,6.1771,6.1869,6.2043,6.2153,6.2196,6.2279,6.2387,6.2472,6.2566,6.2599,6.2673,6.27,6.2809,6.2769,6.2919,6.286,6.2913,6.295,6.2956,6.2969,6.2923,6.3004,6.3148,6.3165,6.298,6.2978,6.2976,0,6.1831,6.2005,6.2132,6.2182,6.2314,6.2371,6.2427,6.2519,6.2584,6.2677,6.272,6.2823,6.2879,6.2958,6.3011,6.2977,6.3155,6.312,6.3184,6.3183,6.3221,6.3218,6.3375,6.3255,6.3254,6.3254,6.3254,0,6.1961,6.2066,6.2161,6.2238,6.2356,6.2414,6.2528,6.2585,6.2667,6.2754,6.2783,6.2864,6.2929,6.3018,6.3059,6.3176,6.3201,6.3229,6.3239,6.3227,6.3224,6.3263,6.3256,6.3259,6.3258,6.3257,6.3256,0,6.2048,6.2116,6.2256,6.2369,6.24,6.2481,6.2577,6.2652,6.2705,6.2815,6.2843,6.2925,6.3031,6.3092,6.3224,6.3252,6.3382,6.3388,6.3351,6.3355,6.3416,6.3409,6.3604,6.3632,6.3493,6.3494,6.3495,0,6.2127,6.2209,6.2332,6.2394,6.2452,6.2551,6.2618,6.2678,6.2745,6.2859,6.292,6.3028,6.3118,6.3284,6.3354,6.3455,6.3463,6.3524,6.3478,6.3463,6.3464,6.3458,6.3466,6.3532,6.3533,6.3534,6.3535,0,6.226,6.2289,6.2386,6.2495,6.2575,6.2662,6.2749,6.2797,6.287,6.2944,6.3054,6.3124,6.326,6.3366,6.3473,6.3528,6.3543,6.3549,6.3569,6.3558,6.3533,6.3547,6.3373,6.3544,6.3543,6.3543,6.3542,6.3542,6.2346,6.242,6.2518,6.2624,6.2696,6.2776,6.2853,6.2916,6.3009,6.3127,6.3155,6.327,6.336,6.3506,6.3563,6.3652,6.3641,6.367,6.3678,6.3684,6.3686,6.3519,6.3672,6.3671,6.3671,6.3671,6.3671,0,6.248,6.2545,6.2642,6.2764,6.2847,6.2857,6.2953,6.3021,6.3123,6.3207,6.3295,6.3421,6.3524,6.3601,6.3705,6.3762,6.3771,6.3787,6.3783,6.3796,6.369,6.3662,6.3778,6.3778,6.3778,6.3777,6.3777,6.3777,6.256,6.2686,6.2726,6.2887,6.295,6.3066,6.3119,6.3192,6.326,6.34,6.3487,6.3537,6.3618,6.3729,6.3823,6.3842,6.3879,6.3894,6.3915,6.3815,6.3803,6.3792,6.3766,6.3902,6.3902,6.4013,6.4014,6.4015]}]]